FENGYUN1
1 25730U 99025A   10300.81238445  .00001109  00000-0  67178-3 0 01727
2 25730 098.7976 262.3871 0020422 253.2793 106.6146 14.08359604590351
OKEAN-0
1 25860U 99039A   10300.88815886  .00000154  00000-0  31058-4 0 01350
2 25860 097.8512 269.2070 0001685 053.9009 306.2361 14.73675846606449
NOAA-16
1 26536U 00055A   10301.53194052  .00000237  00000-0  15326-3 0   506
2 26536 099.1640 322.1099 0010070 326.3961 033.6569 14.12583853520657
NOAA-17
1 27453U 02032A   10301.34155174  .00000013  00000-0  23508-4 0   406
2 27453 098.4151 346.3131 0012727 107.3453 252.9128 14.24202947433659
NOAA-18
1 28654U 05018A   10301.36432412 -.00000103  00000-0 -31919-4 0  5303
2 28654 098.9662 247.3312 0015092 040.2479 319.9812 14.11400503280228
NOAA-19
1 33591U 09005A   10301.38136714  .00000371  00000-0  22996-3 0  7263
2 33591 098.8010 240.7398 0013292 273.0538 086.9107 14.11098688 88695
HUBBLE
1 20580U 90037B   10300.09759300  .00000718  00000-0  41998-4 0  6685
2 20580 028.4686 098.6536 0003467 162.6448 197.4276 15.01074509924596
ISS
1 25544U 98067A   10301.84623521  .00031767  00000-0  24106-3 0  1662
2 25544 051.6474 266.7289 0008632 132.6333 310.7307 15.71999554684496
CO-58
1 28895U 05043F   10300.60165547  .00000369  00000-0  86177-4 0  7159
2 28895 097.9934 180.5463 0017073 227.9381 132.0357 14.59954611266305
FALCON
1 30776U 07006E   10300.46993658  .00001414  00000-0  10352-3 0 09534
2 30776 035.4348 321.0490 0001246 282.7568 077.3009 15.03908896199983
MAST
1 31126U 07012K   10300.59170137  .00000112  00000-0  35634-4 0  9977
2 31126 097.9226 335.6603 0094513 173.8627 186.3747 14.53634466187297
CAPE1
1 31130U 07012P   10301.80439860  .00000209  00000-0  58629-4 0   177
2 31130 097.9238 333.9598 0102991 179.0292 181.1061 14.52241003187051
COMPASS
1 32787U 08021E   10300.30551468  .00000902  00000-0  12019-3 0 08158
2 32787 097.8805 003.1487 0014976 212.8167 147.2110 14.82017970135063
AAUSAT2
1 32788U 08021F   10300.70054902  .00001289  00000-0  16819-3 0 08054
2 32788 097.8805 003.6959 0014721 212.0538 147.9794 14.82172615135136
DO-64
1 32789U 08021G   10300.82854032  .00001584  00000-0  20410-3 0  8229
2 32789 097.8881 004.4561 0015013 209.5738 150.4611 14.82392707135152
CO-66
1 32791U 08021J   10300.21252044  .00000830  00000-0  11168-3 0 08076
2 32791 097.8805 003.0527 0015125 212.5282 147.5042 14.81779055135003
RS-30
1 32953U 08025A   10301.50003976  .00000010  00000-0  00000 0 0  1691
2 32953 082.4995 306.7858 0018835 167.2759 192.8804 12.43008848110305
TACSAT-3
1 35001U 09028A   10301.80887240  .00008011  00000-0  17884-3 0  4176
2 35001 040.4539 130.6598 0023167 287.1305 072.6973 15.43331857 81275
PHARMSAT
1 35002U 09028B   10300.88231926  .00007498  00000-0  16544-3 0  3896
2 35002 040.4684 133.8541 0025963 282.9927 076.7988 15.43675952 81154
HAWKSAT1
1 35003U 09028C   10301.82163704  .00016719  00000-0  30700-3 0  4246
2 35003 040.4586 118.2740 0024359 308.6466 051.2171 15.48477087 81411
CP6
1 35004U 09028D   10301.78836223  .00021566  00000-0  37438-3 0  4224
2 35004 040.4608 116.2216 0023101 314.3606 045.5304 15.49983853 81426
AEROCUB3
1 35005U 09028E   10301.78343267  .00120483  00000-0  11109-2 0  5007
2 35005 040.4653 102.9801 0024051 340.5960 019.3915 15.66044514 81572
CASTOR
1 35694U 09038F   10230.44082147  .07179566  12689-4  99310-4 0  6559
2 35694 051.5930 222.0149 0004218 308.0851 053.0105 16.48877011 61107
METEOR-M
1 35865U 09049A   10301.62924063  .00000176  00000-0  10000-3 0  7824
2 35865 098.7424 354.3608 0002796 357.6691 002.4440 14.21832380 57685
RS-38
1 35869U 09049E   10301.72681636  .00000177  00000-0  10000-3 0  7961
2 35869 098.7406 354.4974 0005107 350.7588 009.3466 14.21991924 57701
